IBE2742 LEMD-LPPT

Flight info

Callsign IBE2742
Flight time 0h 54m
Altitude 31000
Route CCS DCT ELVAR DCT UPULO
Aircraft B77W/H-SDE1E2E3FGHIJ2J3J4J5M1RWXY/LB1D1

Departure

Time 2026-05-06 03:06
Airport Adolfo Suárez Madrid–Barajas Airport (LEMD)

Arrival

Time 2026-05-06 04:01
Airport Lisbon Humberto Delgado Airport (LPPT)
Time Latitude Longitude Altitude Speed Heading
2026-05-06 02:46 40.49533 -3.56873 2013 ft 0 kts 90°
2026-05-06 02:58 40.49533 -3.56875 2014 ft 1 kts 90°
2026-05-06 02:58 40.49533 -3.56893 2014 ft 3 kts 92°
2026-05-06 02:59 40.49537 -3.56917 2014 ft 3 kts 117°
2026-05-06 02:59 40.49549 -3.56938 2014 ft 3 kts 141°
2026-05-06 02:59 40.49567 -3.56950 2014 ft 3 kts 165°
2026-05-06 02:59 40.49579 -3.56952 2014 ft 0 kts 179°
2026-05-06 03:01 40.49572 -3.56954 2014 ft 3 kts 195°
2026-05-06 03:01 40.49554 -3.56961 2014 ft 3 kts 197°
2026-05-06 03:01 40.49507 -3.56975 2014 ft 11 kts 184°
2026-05-06 03:02 40.49410 -3.56978 2014 ft 14 kts 180°
2026-05-06 03:02 40.49325 -3.56978 2014 ft 8 kts 180°
2026-05-06 03:02 40.49303 -3.56990 2014 ft 2 kts 221°
2026-05-06 03:02 40.49290 -3.57019 2014 ft 6 kts 249°
2026-05-06 03:03 40.49285 -3.57061 2014 ft 3 kts 266°
2026-05-06 03:03 40.49283 -3.57076 2014 ft 2 kts 256°
2026-05-06 03:03 40.49264 -3.57105 2014 ft 6 kts 205°
2026-05-06 03:03 40.49206 -3.57117 2014 ft 10 kts 184°
2026-05-06 03:04 40.49157 -3.57157 2014 ft 10 kts 263°
2026-05-06 03:04 40.49156 -3.57252 2014 ft 9 kts 280°
2026-05-06 03:04 40.49171 -3.57314 2014 ft 5 kts 289°
2026-05-06 03:04 40.49179 -3.57344 2014 ft 5 kts 290°
2026-05-06 03:05 40.49194 -3.57394 2014 ft 7 kts 290°
2026-05-06 03:05 40.49221 -3.57445 2014 ft 7 kts 331°
2026-05-06 03:05 40.49280 -3.57459 2014 ft 16 kts 356°
2026-05-06 03:05 40.49688 -3.57471 2014 ft 112 kts 359°
2026-05-06 03:06 40.50853 -3.57470 2063 ft 207 kts
2026-05-06 03:06 40.52427 -3.57680 2831 ft 242 kts 350°
2026-05-06 03:06 40.54054 -3.58315 4339 ft 253 kts 340°
2026-05-06 03:06 40.55633 -3.59373 5533 ft 261 kts 326°
2026-05-06 03:07 40.57088 -3.60823 6729 ft 261 kts 323°
2026-05-06 03:07 40.58554 -3.62245 7893 ft 260 kts 324°
2026-05-06 03:07 40.60020 -3.63587 9212 ft 250 kts 320°
2026-05-06 03:07 40.60900 -3.64527 10074 ft 244 kts 318°
2026-05-06 03:08 40.62233 -3.65946 11030 ft 247 kts 318°
2026-05-06 03:08 40.63497 -3.67496 11840 ft 250 kts 307°
2026-05-06 03:08 40.64206 -3.69584 12552 ft 253 kts 281°
2026-05-06 03:08 40.64368 -3.71941 13189 ft 266 kts 268°
2026-05-06 03:09 40.64281 -3.75284 14023 ft 286 kts 263°
2026-05-06 03:09 40.64185 -3.77079 14468 ft 297 kts 263°
2026-05-06 03:09 40.64039 -3.79879 15044 ft 315 kts 263°
2026-05-06 03:09 40.63913 -3.82805 15601 ft 334 kts 264°
2026-05-06 03:10 40.63805 -3.85958 16124 ft 354 kts 264°
2026-05-06 03:10 40.63716 -3.89271 16707 ft 370 kts 265°
2026-05-06 03:10 40.63640 -3.92718 17446 ft 381 kts 265°
2026-05-06 03:10 40.63569 -3.96227 18342 ft 386 kts 265°
2026-05-06 03:11 40.63500 -3.99772 19396 ft 386 kts 266°
2026-05-06 03:11 40.63432 -4.03323 20391 ft 389 kts 266°
2026-05-06 03:11 40.63363 -4.06894 21345 ft 390 kts 267°
2026-05-06 03:11 40.63294 -4.10488 22120 ft 396 kts 267°
2026-05-06 03:12 40.63238 -4.14093 22913 ft 401 kts 268°
2026-05-06 03:12 40.63216 -4.17789 23682 ft 406 kts 268°
2026-05-06 03:12 40.63175 -4.21528 24436 ft 411 kts 268°
2026-05-06 03:12 40.63110 -4.25338 25060 ft 419 kts 266°
2026-05-06 03:13 40.63032 -4.29190 25820 ft 423 kts 266°
2026-05-06 03:13 40.62947 -4.33087 26490 ft 429 kts 266°
2026-05-06 03:13 40.62861 -4.37040 27110 ft 435 kts 266°
2026-05-06 03:13 40.62771 -4.41056 27686 ft 442 kts 266°
2026-05-06 03:14 40.62680 -4.45150 28206 ft 450 kts 265°
2026-05-06 03:14 40.62569 -4.49302 28842 ft 454 kts 263°
2026-05-06 03:14 40.62086 -4.53373 29276 ft 460 kts 252°
2026-05-06 03:14 40.61008 -4.57377 29535 ft 468 kts 242°
2026-05-06 03:15 40.59400 -4.61081 30326 ft 465 kts 239°
2026-05-06 03:15 40.57466 -4.64481 30808 ft 460 kts 234°
2026-05-06 03:15 40.55430 -4.67697 31005 ft 454 kts 233°
2026-05-06 03:16 40.51720 -4.73864 30999 ft 449 kts 230°
2026-05-06 03:16 40.47944 -4.80528 30999 ft 462 kts 230°
2026-05-06 03:17 40.44043 -4.87348 31000 ft 467 kts 230°
2026-05-06 03:17 40.40169 -4.94093 30987 ft 461 kts 230°
2026-05-06 03:18 40.36233 -5.00919 31000 ft 473 kts 230°
2026-05-06 03:18 40.32265 -5.07783 31000 ft 472 kts 230°
2026-05-06 03:19 40.28302 -5.14622 31001 ft 475 kts 230°
2026-05-06 03:19 40.24273 -5.21561 31003 ft 482 kts 230°
2026-05-06 03:20 40.18262 -5.32020 31000 ft 475 kts 230°
2026-05-06 03:20 40.14310 -5.38855 31000 ft 475 kts 230°
2026-05-06 03:21 40.10267 -5.45806 31024 ft 476 kts 236°
2026-05-06 03:21 40.08310 -5.49164 31018 ft 457 kts 236°
2026-05-06 03:21 40.06397 -5.52441 31013 ft 449 kts 236°
2026-05-06 03:22 40.02653 -5.58846 31012 ft 442 kts 236°
2026-05-06 03:22 39.98928 -5.65202 31013 ft 443 kts 236°
2026-05-06 03:23 39.95179 -5.71587 31014 ft 443 kts 236°
2026-05-06 03:23 39.91416 -5.77983 31014 ft 443 kts 236°
2026-05-06 03:24 39.87662 -5.84351 31012 ft 443 kts 236°
2026-05-06 03:24 39.83921 -5.90684 31013 ft 443 kts 236°
2026-05-06 03:25 39.80149 -5.97056 31013 ft 443 kts 236°
2026-05-06 03:25 39.76400 -6.03378 31013 ft 445 kts 236°
2026-05-06 03:26 39.72605 -6.09765 31012 ft 446 kts 237°
2026-05-06 03:26 39.68792 -6.16232 31011 ft 454 kts 237°
2026-05-06 03:27 39.64914 -6.22726 31011 ft 456 kts 237°
2026-05-06 03:27 39.61026 -6.29207 31010 ft 458 kts 237°
2026-05-06 03:28 39.57099 -6.35741 31009 ft 460 kts 237°
2026-05-06 03:28 39.53148 -6.42308 31008 ft 463 kts 237°
2026-05-06 03:29 39.49669 -6.49158 31012 ft 448 kts 245°
2026-05-06 03:29 39.47122 -6.56404 31008 ft 436 kts 247°
2026-05-06 03:30 39.44625 -6.63665 31004 ft 449 kts 250°
2026-05-06 03:30 39.41871 -6.70985 31015 ft 448 kts 244°
2026-05-06 03:31 39.39121 -6.78052 31003 ft 433 kts 242°
2026-05-06 03:31 39.36404 -6.85081 30986 ft 449 kts 238°
2026-05-06 03:32 39.35025 -6.88764 30991 ft 462 kts 239°
2026-05-06 03:32 39.33584 -6.92555 30994 ft 475 kts 246°
2026-05-06 03:32 39.32103 -6.96386 30999 ft 489 kts 246°
2026-05-06 03:32 39.30554 -7.00358 31001 ft 501 kts 246°
2026-05-06 03:33 39.27351 -7.08539 30997 ft 518 kts 241°
2026-05-06 03:33 39.24086 -7.16868 30871 ft 517 kts 245°
2026-05-06 03:34 39.22470 -7.20990 30379 ft 512 kts 246°
2026-05-06 03:34 39.20853 -7.25068 29833 ft 509 kts 246°
2026-05-06 03:34 39.19228 -7.29043 29294 ft 505 kts 246°
2026-05-06 03:34 39.17619 -7.33022 28709 ft 497 kts 247°
2026-05-06 03:35 39.16033 -7.36911 28298 ft 482 kts 248°
2026-05-06 03:35 39.14469 -7.40726 27749 ft 471 kts 248°
2026-05-06 03:35 39.12971 -7.44366 27221 ft 460 kts 248°
2026-05-06 03:35 39.11494 -7.47952 26723 ft 447 kts 248°
2026-05-06 03:36 39.10050 -7.51452 26191 ft 431 kts 248°
2026-05-06 03:36 39.08676 -7.54782 25692 ft 410 kts 247°
2026-05-06 03:36 39.07379 -7.57922 25473 ft 384 kts 248°
2026-05-06 03:36 39.06167 -7.60858 25278 ft 360 kts 248°
2026-05-06 03:37 39.05018 -7.63640 24996 ft 350 kts 248°
2026-05-06 03:37 39.03874 -7.66456 24678 ft 359 kts 248°
2026-05-06 03:37 39.02764 -7.69367 24472 ft 365 kts 249°
2026-05-06 03:37 39.01684 -7.72279 24154 ft 366 kts 249°
2026-05-06 03:38 39.00579 -7.75228 23812 ft 369 kts 251°
2026-05-06 03:38 38.99452 -7.78201 23468 ft 368 kts 250°
2026-05-06 03:38 38.98327 -7.81143 23129 ft 363 kts 250°
2026-05-06 03:38 38.97221 -7.84029 22793 ft 357 kts 249°
2026-05-06 03:39 38.96129 -7.86874 22462 ft 352 kts 248°
2026-05-06 03:39 38.95055 -7.89669 22135 ft 347 kts 248°
2026-05-06 03:39 38.93995 -7.92424 21810 ft 341 kts 249°
2026-05-06 03:39 38.92948 -7.95146 21495 ft 336 kts 250°
2026-05-06 03:40 38.91929 -7.97795 21175 ft 333 kts 252°
2026-05-06 03:40 38.90855 -8.00427 20867 ft 333 kts 248°
2026-05-06 03:40 38.89557 -8.02906 20557 ft 334 kts 242°
2026-05-06 03:40 38.88143 -8.05269 20244 ft 333 kts 239°
2026-05-06 03:41 38.86673 -8.07566 19931 ft 331 kts 238°
2026-05-06 03:41 38.85194 -8.09820 19620 ft 330 kts 237°
2026-05-06 03:41 38.83714 -8.12074 19314 ft 330 kts 236°
2026-05-06 03:41 38.82235 -8.14333 19014 ft 331 kts 235°
2026-05-06 03:42 38.80758 -8.16594 18703 ft 328 kts 236°
2026-05-06 03:42 38.79317 -8.18802 18401 ft 325 kts 235°
2026-05-06 03:42 38.77870 -8.21020 18095 ft 323 kts 236°
2026-05-06 03:42 38.76432 -8.23224 17795 ft 321 kts 236°
2026-05-06 03:43 38.75003 -8.25430 17496 ft 321 kts 236°
2026-05-06 03:43 38.73586 -8.27655 17195 ft 322 kts 236°
2026-05-06 03:43 38.72167 -8.29862 16896 ft 322 kts 235°
2026-05-06 03:43 38.70731 -8.32079 16593 ft 320 kts 235°
2026-05-06 03:44 38.69325 -8.34236 16296 ft 318 kts 234°
2026-05-06 03:44 38.67891 -8.36430 15993 ft 316 kts 234°
2026-05-06 03:44 38.66502 -8.38552 15700 ft 313 kts 234°
2026-05-06 03:44 38.65108 -8.40678 15405 ft 311 kts 233°
2026-05-06 03:45 38.63721 -8.42791 15112 ft 308 kts 233°
2026-05-06 03:45 38.62348 -8.44883 14824 ft 305 kts 233°
2026-05-06 03:45 38.60987 -8.46955 14540 ft 303 kts 233°
2026-05-06 03:45 38.59635 -8.49012 14257 ft 300 kts 233°
2026-05-06 03:46 38.58313 -8.51024 13979 ft 299 kts 233°
2026-05-06 03:46 38.56953 -8.53094 13693 ft 302 kts 232°
2026-05-06 03:46 38.55597 -8.55156 13408 ft 303 kts 231°
2026-05-06 03:46 38.54260 -8.57181 13131 ft 301 kts 227°
2026-05-06 03:47 38.52898 -8.59206 12842 ft 299 kts 228°
2026-05-06 03:47 38.51542 -8.61213 12584 ft 296 kts 230°
2026-05-06 03:47 38.50207 -8.63181 12309 ft 289 kts 228°
2026-05-06 03:47 38.48901 -8.65099 12004 ft 285 kts 231°
2026-05-06 03:48 38.47618 -8.66978 11778 ft 277 kts 231°
2026-05-06 03:48 38.46360 -8.68818 11512 ft 273 kts 232°
2026-05-06 03:48 38.45120 -8.70631 11258 ft 270 kts 232°
2026-05-06 03:48 38.43881 -8.72440 11008 ft 271 kts 232°
2026-05-06 03:49 38.42640 -8.74252 10751 ft 270 kts 232°
2026-05-06 03:49 38.41428 -8.76019 10502 ft 268 kts 232°
2026-05-06 03:49 38.40198 -8.77814 10245 ft 266 kts 229°
2026-05-06 03:49 38.38977 -8.79592 9968 ft 265 kts 232°
2026-05-06 03:50 38.37762 -8.81363 9720 ft 263 kts 232°
2026-05-06 03:50 38.36561 -8.83113 9471 ft 262 kts 232°
2026-05-06 03:50 38.35379 -8.84834 9225 ft 260 kts 232°
2026-05-06 03:50 38.34278 -8.86625 8962 ft 254 kts 241°
2026-05-06 03:51 38.33819 -8.88741 8728 ft 243 kts 269°
2026-05-06 03:51 38.34212 -8.90760 8603 ft 234 kts 294°
2026-05-06 03:51 38.35083 -8.92523 8213 ft 238 kts 303°
2026-05-06 03:51 38.36050 -8.94261 7810 ft 242 kts 307°
2026-05-06 03:52 38.37192 -8.95844 7425 ft 247 kts 313°
2026-05-06 03:52 38.38070 -8.96945 7206 ft 249 kts 314°
2026-05-06 03:52 38.39313 -8.98490 6946 ft 250 kts 313°
2026-05-06 03:52 38.40550 -9.00033 6755 ft 248 kts 313°
2026-05-06 03:53 38.41784 -9.01581 6510 ft 249 kts 313°
2026-05-06 03:53 38.43006 -9.03119 6293 ft 248 kts 313°
2026-05-06 03:53 38.44232 -9.04666 6177 ft 247 kts 312°
2026-05-06 03:53 38.45455 -9.06210 6087 ft 249 kts 312°
2026-05-06 03:54 38.46694 -9.07778 5795 ft 250 kts 312°
2026-05-06 03:54 38.47930 -9.09343 5521 ft 250 kts 312°
2026-05-06 03:54 38.49164 -9.10907 5254 ft 249 kts 312°
2026-05-06 03:54 38.49978 -9.11940 5076 ft 249 kts 315°
2026-05-06 03:55 38.51205 -9.13496 4879 ft 246 kts 318°
2026-05-06 03:55 38.52799 -9.15519 4695 ft 237 kts 318°
2026-05-06 03:55 38.53569 -9.16494 4610 ft 234 kts 318°
2026-05-06 03:55 38.55079 -9.18410 4445 ft 227 kts 318°
2026-05-06 03:56 38.56193 -9.19823 4326 ft 225 kts 318°
2026-05-06 03:56 38.56946 -9.20776 4246 ft 225 kts 318°
2026-05-06 03:56 38.58159 -9.21947 4128 ft 217 kts 333°
2026-05-06 03:56 38.59581 -9.22447 3916 ft 210 kts 354°
2026-05-06 03:57 38.61023 -9.22326 3634 ft 207 kts
2026-05-06 03:57 38.62417 -9.21864 3351 ft 207 kts 15°
2026-05-06 03:57 38.63781 -9.21298 3075 ft 205 kts 20°
2026-05-06 03:57 38.65128 -9.20691 2784 ft 205 kts 21°
2026-05-06 03:58 38.66453 -9.19985 2500 ft 203 kts 25°
2026-05-06 03:58 38.67707 -9.19208 2271 ft 198 kts 26°
2026-05-06 03:58 38.68938 -9.18480 1968 ft 196 kts 26°
2026-05-06 03:58 38.70175 -9.17862 1726 ft 185 kts 17°
2026-05-06 03:59 38.71306 -9.17228 1470 ft 172 kts 17°
2026-05-06 03:59 38.72348 -9.16656 1272 ft 152 kts 21°
2026-05-06 03:59 38.73255 -9.16163 1029 ft 133 kts 18°
2026-05-06 03:59 38.74108 -9.15736 739 ft 133 kts 17°
2026-05-06 04:00 38.74985 -9.15270 608 ft 142 kts 18°
2026-05-06 04:00 38.75921 -9.14770 528 ft 149 kts 20°
2026-05-06 04:00 38.76865 -9.14270 424 ft 141 kts 20°
2026-05-06 04:00 38.77690 -9.13826 389 ft 110 kts 20°
2026-05-06 04:01 38.78165 -9.13581 388 ft 37 kts 24°
2026-05-06 04:01 38.78333 -9.13487 388 ft 24 kts 24°
2026-05-06 04:01 38.78437 -9.13371 388 ft 16 kts 67°
2026-05-06 04:01 38.78456 -9.13272 388 ft 7 kts 115°
2026-05-06 04:02 38.78428 -9.13244 388 ft 4 kts 159°
2026-05-06 04:02 38.78395 -9.13242 388 ft 6 kts 189°
2026-05-06 04:02 38.78342 -9.13269 388 ft 11 kts 203°
2026-05-06 04:02 38.78248 -9.13319 388 ft 18 kts 202°
2026-05-06 04:03 38.78142 -9.13372 388 ft 17 kts 187°
2026-05-06 04:03 38.78031 -9.13355 388 ft 14 kts 167°
2026-05-06 04:03 38.77948 -9.13329 388 ft 10 kts 166°
2026-05-06 04:03 38.77894 -9.13312 388 ft 6 kts 167°
2026-05-06 04:04 38.77298 -9.14037 397 ft 131 kts 20°
2026-05-06 04:04 38.77849 -9.13299 388 ft 8 kts 167°
2026-05-06 04:04 38.77737 -9.13286 388 ft 38 kts 174°
2026-05-06 04:04 38.77490 -9.13259 388 ft 39 kts 176°
2026-05-06 04:05 38.77368 -9.13227 388 ft 8 kts 136°
2026-05-06 04:05 38.77356 -9.13151 388 ft 9 kts 89°
2026-05-06 04:05 38.77366 -9.13095 388 ft 4 kts 77°
2026-05-06 04:05 38.77367 -9.13093 388 ft 0 kts 77°